Location: Elliot Lake
(46.3862°N, 82.6509°W)
Time: 10:52:58
(UTC-05:00)

ISS - Visible Passes

Search period start: 19 February 2018 00:00
Search period end: 01 March 2018 00:00
Orbit: 403 x 407 km, 51.6° (Epoch: 20 February)

Date Brightness Start Highest point End Pass type
(mag) Time Alt. Az. Time Alt. Az. Time Alt. Az.
24 Feb -0.5 06:44:13 10° SSE 06:45:24 11° SE 06:46:34 10° ESE visible
26 Feb -1.5 06:34:20 10° SSW 06:37:01 24° SE 06:39:44 10° E visible
27 Feb -0.9 05:43:08 10° SSE 05:44:57 14° SE 05:46:46 10° E visible
28 Feb -3.0 06:25:33 10° SW 06:28:44 49° SE 06:31:55 10° ENE visible
